{"data":{"norad_id":65094,"epoch":"2026-09-20T02:23:57.157440Z","epoch_age_seconds":154784,"freshness":"FRESH","line1":"1 65094U 25167S   26263.09996710  .00020305  00000+0  61015-3 0  9990","line2":"2 65094  53.1574 195.9186 0000567  82.2533 277.8534 15.34415305 63344","mean_motion":15.34415305,"eccentricity":5.67e-5,"inclination_deg":53.1574,"raan_deg":195.9186,"arg_perigee_deg":82.2533,"mean_anomaly_deg":277.8534,"bstar":0.00061015,"rev_number":6334,"period_min":93.846821998429,"perigee_km":462.26987783746,"apogee_km":463.04562396221,"semimajor_km":6840.7947508998,"source":"CELESTRAK","updated_at":"2026-09-21T09:00:35.524256Z"}}